Location: Colossi of Memnon
(25.7167°N, 32.6167°E)
Time: 18:42:37
(UTC+00:00)

N. Korean satellite - Pass Details

Date: 25 September 2021
Orbit: 450 x 495 km, 97.3° (Epoch: 15 October)

Event Time Altitude Azimuth Distance (km) Brightness Sun altitude
Rises 02:02:39 0° 38° (NE) 2,535 10.9 -22.5°
Reaches altitude 10° 02:05:39 10° 67° (ENE) 1,663 10.3 -21.8°
Maximum altitude 02:07:23 13° 96° (E) 1,483 10.0 -21.4°
Drops below altitude 10° 02:09:08 10° 125° (SE) 1,669 9.9 -21.1°
Sets 02:12:09 0° 154° (SSE) 2,554 10.4 -20.4°
